STARLINK-11075, 58706

Orbit data source: Space-Track

STARLINK-11075, 58706 is a payload satellite owned by SpaceX/Seattle (US) in LEO that was launched on Wed, 03 Jan 2024 UTC via an FALCON 9 launch vehicle from the Air Force Western Test Range (AFWTR). Payload-class satellites include a variety of spacecraft equipped with specific instruments for various scientific and technological missions. These include communications satellites like Starlink; space stations such as the ISS; scientific satellites like the Hubble; Earth observation satellites from companies like Planet Labs, Umbra, and HawkEye 360; GPS; miniature CubeSats for education and research; and military/defense satellites.

Loading next visibility...
Identifier
58706, 2024-002B
Orbit
LEO
Country
Flag of USUS
Related business
Manufacturer
SpaceX/Seattle
Mission
Operational Commercial Communications
Bus & Motor
STARLINK V2MD, Unknown motor
Mass
960 kg wet, ~910 kg dry
Launch date (UTC)
2024-01-03 (2 years ago)
Launch vehicle
FALCON 9
Launch site
Air Force Western Test Range (AFWTR)
Object type
Payload
Rocket body
Debris
Shape & HBR
Box + 2 Pan, 18.1 m
Radar Cross Section
36.964 m², Large (>1 m²)

Expand to show TLE details & history
Last TLE update: 3 days ago

TLE from 3 days ago
0 STARLINK-11075
1 58706U 24002B   26170.88440392  .00001395  00000-0  16383-4 0  9991
2 58706  53.1589 129.8460 0001234  78.3228 281.7928 15.69697041142494
Epoch: 2026-06-19T21:13Z
TLE epoch observation values (Epoch: 2026-06-19T21:13:32.498Z)
Latitude
-0.00006°
Longitude
-96.64643°
Altitude
360.509 km
Speed
7.694 km/s
True Right ascension
08h 39m 23s
True Declination
0° 00' 00"
Sunlit
Object was in daylight at epoch
Visualization orbit readout
Latitude
Unknown
Longitude
Unknown
Altitude
Unknown
Speed
Unknown
Apparent Right ascension
Unknown
Apparent Declination
Unknown
Sunlit
N/A
Visualization observer readout
Local Sidereal Time
21:39:08
Azimuth
Unknown
Elevation
Unknown
Doppler factor
Unknown
Orbital elements
Apogee altitude
360.856 km
Perigee altitude
359.193 km
Semi-major axis
6,738.162 km
Eccentricity
0.00012
Inclination
53.1589°
RAAN
129.846°
Arg. of periapsis
78.3228°
True anomaly
281.77896°
Mean anomaly
281.7928°
Eccentric anomaly
281.78588°
Mean motion
3.92402 °/min
Orbital period
91.74 mins
BSTAR
0.000016383
Loading maneuver chart data...
Computing Atmospheric mass density...
Loading historical data...
Loading historical data...
Loading historical data...
Loading historical data...
Loading historical data...
Loading historical data...
Loading historical data...

Documentation

Showing up to 5 results
|